JAL77UK RJCC-VTSP

Flight info

Callsign JAL77UK
Flight time N/A
Altitude 36000
Route RJCC/19R DALBI1 DALBI Y120 TAPPI GOLDO Y14 SAMON MARCO Y45 LEMEG/N0482F380 Y45 NHC V91 MJC G581 HCN G86 KAPLI DCT IKELA/K0902F380 A1 LENKO/K0893F400 A1 PAPRA/N0482F400 A1 UBL W1 RAMEI W42 MENEX G458 SAVSA SAVSA1D VTSP/27
Aircraft B772/H-SDE2E3FGHIJ5LORVWXY/LB1D1

Departure

Time 2026-05-05 14:32
Airport New Chitose Airport (RJCC)

Arrival

Time N/A
Airport Phuket International Airport (VTSP)
Time Latitude Longitude Altitude Speed Heading
2026-05-05 14:16 42.79040 141.67971 83 ft 0 kts 195°
2026-05-05 14:23 42.79042 141.67972 83 ft 3 kts 195°
2026-05-05 14:24 42.79068 141.67981 84 ft 4 kts 189°
2026-05-05 14:24 42.79104 141.67984 87 ft 4 kts 174°
2026-05-05 14:24 42.79121 141.67980 87 ft 4 kts 155°
2026-05-05 14:24 42.79136 141.67962 88 ft 1 kts 104°
2026-05-05 14:25 42.79137 141.67961 83 ft 0 kts 104°
2026-05-05 14:27 42.79136 141.67966 87 ft 3 kts 104°
2026-05-05 14:27 42.79127 141.68015 87 ft 6 kts 104°
2026-05-05 14:27 42.79117 141.68066 85 ft 6 kts 104°
2026-05-05 14:27 42.79104 141.68117 87 ft 6 kts 111°
2026-05-05 14:28 42.79085 141.68167 88 ft 9 kts 123°
2026-05-05 14:28 42.79017 141.68265 88 ft 15 kts 138°
2026-05-05 14:28 42.78931 141.68348 88 ft 15 kts 149°
2026-05-05 14:28 42.78905 141.68477 85 ft 15 kts 74°
2026-05-05 14:29 42.78943 141.68612 87 ft 15 kts 70°
2026-05-05 14:29 42.78907 141.68736 89 ft 15 kts 138°
2026-05-05 14:29 42.78819 141.68815 87 ft 15 kts 166°
2026-05-05 14:29 42.78754 141.68828 87 ft 0 kts 173°
2026-05-05 14:31 42.78742 141.68830 88 ft 12 kts 173°
2026-05-05 14:31 42.78423 141.68887 85 ft 81 kts 173°
2026-05-05 14:32 42.77650 141.69022 85 ft 141 kts 172°
2026-05-05 14:32 42.76557 141.69207 354 ft 161 kts 172°
2026-05-05 14:32 42.75433 141.69411 1000 ft 166 kts 173°
2026-05-05 14:32 42.74320 141.69628 1865 ft 159 kts 180°
2026-05-05 14:33 42.73154 141.69844 2168 ft 182 kts 181°
2026-05-05 14:33 42.71824 141.70091 2382 ft 203 kts 181°
2026-05-05 14:33 42.70398 141.70369 2821 ft 211 kts 182°
2026-05-05 14:33 42.68924 141.70662 3330 ft 217 kts 184°
2026-05-05 14:34 42.67408 141.70964 3843 ft 222 kts 184°
2026-05-05 14:34 42.65875 141.71271 4463 ft 222 kts 184°
2026-05-05 14:34 42.64337 141.71576 5015 ft 225 kts 185°
2026-05-05 14:34 42.62746 141.71883 5372 ft 239 kts 184°
2026-05-05 14:35 42.61055 141.72208 5705 ft 251 kts 183°
2026-05-05 14:35 42.59301 141.72475 6039 ft 251 kts 193°
2026-05-05 14:35 42.57715 141.71769 6426 ft 235 kts 223°
2026-05-05 14:35 42.56572 141.70227 6932 ft 232 kts 237°
2026-05-05 14:36 42.55714 141.68368 7418 ft 234 kts 243°
2026-05-05 14:36 42.54928 141.66414 7935 ft 237 kts 244°
2026-05-05 14:36 42.54146 141.64425 8450 ft 240 kts 244°
2026-05-05 14:36 42.53354 141.62411 8960 ft 244 kts 244°
2026-05-05 14:37 42.52549 141.60369 9458 ft 247 kts 244°
2026-05-05 14:37 42.51740 141.58324 9908 ft 251 kts 244°
2026-05-05 14:37 42.50900 141.56213 10231 ft 260 kts 244°
2026-05-05 14:37 42.50015 141.53990 10352 ft 276 kts 244°
2026-05-05 14:38 42.49069 141.51624 10474 ft 293 kts 244°
2026-05-05 14:38 42.48065 141.49120 10611 ft 312 kts 244°
2026-05-05 14:38 42.47000 141.46468 10876 ft 328 kts 244°
2026-05-05 14:38 42.45889 141.43716 11361 ft 338 kts 244°
2026-05-05 14:39 42.44749 141.40896 12010 ft 344 kts 244°
2026-05-05 14:39 42.43595 141.38048 12762 ft 347 kts 244°
2026-05-05 14:39 42.42425 141.35158 13499 ft 352 kts 244°
2026-05-05 14:39 42.41240 141.32234 14145 ft 357 kts 244°
2026-05-05 14:40 42.40042 141.29282 14801 ft 360 kts 244°
2026-05-05 14:40 42.38832 141.26302 15467 ft 363 kts 244°
2026-05-05 14:40 42.37628 141.23340 16105 ft 365 kts 244°
2026-05-05 14:40 42.36383 141.20277 16750 ft 368 kts 243°
2026-05-05 14:41 42.35146 141.17238 17383 ft 371 kts 243°
2026-05-05 14:41 42.33894 141.14169 17960 ft 375 kts 243°
2026-05-05 14:41 42.32631 141.11075 18481 ft 379 kts 243°
2026-05-05 14:41 42.31351 141.07945 18969 ft 382 kts 243°
2026-05-05 14:42 42.30061 141.04794 19468 ft 384 kts 243°
2026-05-05 14:42 42.28760 141.01617 19952 ft 387 kts 243°
2026-05-05 14:42 42.27468 140.98467 20408 ft 390 kts 243°
2026-05-05 14:42 42.26146 140.95244 20870 ft 393 kts 243°
2026-05-05 14:43 42.24813 140.91997 21294 ft 397 kts 243°
2026-05-05 14:43 42.23469 140.88727 21731 ft 400 kts 243°
2026-05-05 14:43 42.22114 140.85437 22206 ft 403 kts 243°
2026-05-05 14:43 42.20745 140.82117 22661 ft 406 kts 243°
2026-05-05 14:44 42.19365 140.78781 23111 ft 408 kts 242°
2026-05-05 14:44 42.17972 140.75427 23549 ft 411 kts 242°
2026-05-05 14:44 42.16564 140.72041 23917 ft 414 kts 242°
2026-05-05 14:44 42.15172 140.68695 24287 ft 417 kts 243°
2026-05-05 14:45 42.13746 140.65274 24634 ft 417 kts 243°
2026-05-05 14:45 42.12332 140.61880 25278 ft 413 kts 243°
2026-05-05 14:45 42.10931 140.58525 25894 ft 409 kts 244°
2026-05-05 14:45 42.09484 140.55221 26113 ft 413 kts 238°
2026-05-05 14:46 42.07446 140.52396 26183 ft 431 kts 222°
2026-05-05 14:46 42.04855 140.50285 26534 ft 442 kts 210°
2026-05-05 14:46 42.01913 140.48952 26847 ft 450 kts 200°
2026-05-05 14:46 41.98869 140.47870 27102 ft 455 kts 199°
2026-05-05 14:47 41.95773 140.46776 27131 ft 464 kts 199°
2026-05-05 14:47 41.92630 140.45658 27329 ft 470 kts 199°
2026-05-05 14:47 41.89508 140.44530 27672 ft 472 kts 199°
2026-05-05 14:47 41.86340 140.43367 28036 ft 473 kts 199°
2026-05-05 14:48 41.83158 140.42185 28357 ft 475 kts 199°
2026-05-05 14:48 41.79964 140.40991 28631 ft 477 kts 199°
2026-05-05 14:48 41.76751 140.39787 28920 ft 479 kts 199°
2026-05-05 14:48 41.73536 140.38586 29279 ft 479 kts 199°
2026-05-05 14:49 41.70311 140.37382 29525 ft 482 kts 199°
2026-05-05 14:49 41.67069 140.36174 29734 ft 484 kts 200°
2026-05-05 14:49 41.63854 140.34977 29937 ft 487 kts 199°
2026-05-05 14:49 41.60591 140.33765 30199 ft 487 kts 199°
2026-05-05 14:50 41.57321 140.32553 30502 ft 486 kts 199°
2026-05-05 14:50 41.54060 140.31351 30826 ft 485 kts 199°
2026-05-05 14:50 41.50814 140.30158 31171 ft 483 kts 199°
2026-05-05 14:50 41.47580 140.28970 31504 ft 482 kts 199°
2026-05-05 14:51 41.44352 140.27784 31823 ft 481 kts 199°
2026-05-05 14:51 41.41127 140.26599 32157 ft 479 kts 199°
2026-05-05 14:51 41.37920 140.25423 32496 ft 478 kts 199°
2026-05-05 14:51 41.34721 140.24251 32797 ft 477 kts 199°
2026-05-05 14:52 41.31518 140.23078 33018 ft 478 kts 199°
2026-05-05 14:52 41.28313 140.21905 33327 ft 477 kts 199°
2026-05-05 14:52 41.25117 140.20736 33687 ft 475 kts 199°
2026-05-05 14:52 41.21938 140.19576 34039 ft 473 kts 199°
2026-05-05 14:53 41.18765 140.18418 34316 ft 472 kts 199°
2026-05-05 14:53 41.15607 140.17267 34591 ft 470 kts 199°
2026-05-05 14:53 41.12504 140.15949 34895 ft 464 kts 205°
2026-05-05 14:53 41.09562 140.14253 35250 ft 459 kts 208°
2026-05-05 14:54 41.06667 140.12479 35465 ft 459 kts 208°
2026-05-05 14:54 41.03805 140.10733 35685 ft 458 kts 208°
2026-05-05 14:54 41.00910 140.08979 35953 ft 457 kts 208°
2026-05-05 14:54 40.98008 140.07231 36041 ft 459 kts 208°
2026-05-05 14:55 40.92175 140.03738 36088 ft 459 kts 208°
2026-05-05 14:55 40.86405 140.00305 36096 ft 452 kts 208°
2026-05-05 14:56 40.80678 139.96902 36099 ft 450 kts 208°
2026-05-05 14:56 40.74957 139.93504 36102 ft 450 kts 208°
2026-05-05 14:57 40.69238 139.90115 36122 ft 451 kts 208°
2026-05-05 14:57 40.63551 139.86751 36134 ft 451 kts 208°
2026-05-05 14:58 40.57820 139.83369 36127 ft 452 kts 208°
2026-05-05 14:58 40.52080 139.79987 36132 ft 452 kts 208°
2026-05-05 14:59 40.46339 139.76611 36140 ft 452 kts 208°
2026-05-05 14:59 40.40595 139.73241 36145 ft 452 kts 208°
2026-05-05 15:00 40.35828 139.70447 36137 ft 452 kts 208°
2026-05-05 15:00 40.29156 139.66545 36153 ft 451 kts 208°
2026-05-05 15:01 40.23382 139.63176 36143 ft 451 kts 208°
2026-05-05 15:01 40.17685 139.59857 36147 ft 451 kts 208°
2026-05-05 15:02 40.11952 139.56524 36154 ft 450 kts 208°
2026-05-05 15:02 40.06233 139.53205 36155 ft 450 kts 208°
2026-05-05 15:03 40.00515 139.49892 36148 ft 449 kts 208°
2026-05-05 15:03 39.94802 139.46590 36150 ft 449 kts 208°
2026-05-05 15:04 39.89096 139.43296 36157 ft 448 kts 208°
2026-05-05 15:04 39.83396 139.40011 36148 ft 447 kts 208°
2026-05-05 15:05 39.74866 139.35108 36155 ft 447 kts 208°
2026-05-05 15:06 39.69217 139.31868 36155 ft 446 kts 208°
2026-05-05 15:06 39.63536 139.28615 36164 ft 446 kts 209°
2026-05-05 15:07 39.57852 139.25368 36154 ft 445 kts 209°
2026-05-05 15:07 39.52185 139.22135 36163 ft 445 kts 209°
2026-05-05 15:08 39.46556 139.18930 36163 ft 444 kts 209°
2026-05-05 15:08 39.40902 139.15717 36158 ft 444 kts 209°
2026-05-05 15:09 39.35246 139.12508 36162 ft 443 kts 209°
2026-05-05 15:09 39.29610 139.09315 36152 ft 442 kts 209°
2026-05-05 15:10 39.24018 139.06153 36164 ft 441 kts 209°
2026-05-05 15:10 39.18402 139.02984 36166 ft 440 kts 209°
2026-05-05 15:11 39.12786 138.99820 36165 ft 440 kts 209°
2026-05-05 15:11 39.07175 138.96663 36167 ft 440 kts 209°
2026-05-05 15:12 39.01558 138.93509 36167 ft 440 kts 209°
2026-05-05 15:12 38.95936 138.90358 36166 ft 441 kts 209°
2026-05-05 15:13 38.90312 138.87211 36152 ft 440 kts 210°
2026-05-05 15:13 38.85647 138.84606 36164 ft 440 kts 210°
2026-05-05 15:14 38.79091 138.80950 36172 ft 439 kts 209°
2026-05-05 15:14 38.74432 138.78356 36166 ft 439 kts 210°
2026-05-05 15:15 38.68833 138.75243 36170 ft 438 kts 210°
2026-05-05 15:15 38.63244 138.72142 36156 ft 438 kts 210°
2026-05-05 15:16 38.57661 138.69049 36165 ft 437 kts 210°
2026-05-05 15:16 38.52123 138.65987 36171 ft 436 kts 210°
2026-05-05 15:17 38.46555 138.62913 36171 ft 435 kts 210°
2026-05-05 15:17 38.40994 138.59847 36166 ft 435 kts 210°
2026-05-05 15:18 38.35438 138.56791 36167 ft 434 kts 210°
2026-05-05 15:18 38.29903 138.53750 36173 ft 433 kts 210°
2026-05-05 15:19 38.24406 138.50734 36179 ft 433 kts 210°
2026-05-05 15:19 38.18879 138.47708 36180 ft 433 kts 210°
2026-05-05 15:20 38.13345 138.44682 36181 ft 432 kts 210°
2026-05-05 15:20 38.08211 138.41023 36172 ft 416 kts 225°
2026-05-05 15:21 38.04276 138.35749 36182 ft 409 kts 237°
2026-05-05 15:21 38.01488 138.29509 36181 ft 407 kts 243°
2026-05-05 15:22 37.98750 138.23196 36191 ft 410 kts 243°
2026-05-05 15:22 37.95984 138.16917 36181 ft 411 kts 242°
2026-05-05 15:23 37.93181 138.10585 36182 ft 412 kts 242°
2026-05-05 15:23 37.90366 138.04247 36183 ft 413 kts 242°
2026-05-05 15:24 37.87545 137.97909 36183 ft 413 kts 242°
2026-05-05 15:24 37.84719 137.91569 36179 ft 413 kts 242°
2026-05-05 15:25 37.81898 137.85251 36179 ft 412 kts 242°
2026-05-05 15:25 37.79076 137.78942 36187 ft 412 kts 242°
2026-05-05 15:26 37.76257 137.72651 36175 ft 411 kts 242°
2026-05-05 15:26 37.73435 137.66368 36173 ft 411 kts 242°
2026-05-05 15:27 37.70611 137.60090 36177 ft 411 kts 242°
2026-05-05 15:27 37.67802 137.53860 36184 ft 411 kts 242°
2026-05-05 15:28 37.64975 137.47601 36166 ft 411 kts 242°
2026-05-05 15:28 37.62145 137.41347 36164 ft 411 kts 242°
2026-05-05 15:29 37.59306 137.35086 36164 ft 411 kts 242°
2026-05-05 15:29 37.56468 137.28838 36178 ft 410 kts 242°
2026-05-05 15:30 37.53627 137.22596 36171 ft 410 kts 242°
2026-05-05 15:30 37.50798 137.16393 36168 ft 410 kts 241°
2026-05-05 15:31 37.47950 137.10160 36171 ft 410 kts 241°
2026-05-05 15:31 37.45097 137.03928 36162 ft 411 kts 241°
2026-05-05 15:32 37.42239 136.97697 36161 ft 410 kts 241°
2026-05-05 15:32 37.39379 136.91472 36152 ft 410 kts 241°
2026-05-05 15:33 37.36540 136.85306 36170 ft 410 kts 241°
2026-05-05 15:33 37.33681 136.79107 36173 ft 410 kts 241°
2026-05-05 15:34 37.30816 136.72905 36177 ft 410 kts 241°
2026-05-05 15:34 37.27948 136.66711 36167 ft 410 kts 241°
2026-05-05 15:35 37.25079 136.60527 36179 ft 410 kts 241°
2026-05-05 15:35 37.22206 136.54346 36179 ft 410 kts 241°
2026-05-05 15:36 37.19349 136.48209 36163 ft 409 kts 241°
2026-05-05 15:36 37.16474 136.42046 36172 ft 409 kts 241°
2026-05-05 15:37 37.13603 136.35905 36172 ft 408 kts 241°
2026-05-05 15:37 37.11216 136.30804 36174 ft 408 kts 241°
2026-05-05 15:38 37.07853 136.23635 36171 ft 408 kts 241°
2026-05-05 15:38 37.04973 136.17504 36174 ft 408 kts 240°
2026-05-05 15:39 37.02087 136.11373 36173 ft 408 kts 240°
2026-05-05 15:39 36.99199 136.05249 36173 ft 409 kts 240°
2026-05-05 15:40 36.96321 135.99163 36176 ft 409 kts 240°
2026-05-05 15:40 36.93422 135.93046 36175 ft 409 kts 240°
2026-05-05 15:41 36.90517 135.86926 36172 ft 409 kts 240°
2026-05-05 15:41 36.87609 135.80808 36175 ft 409 kts 240°
2026-05-05 15:42 36.84696 135.74692 36171 ft 409 kts 240°
2026-05-05 15:42 36.81783 135.68585 36171 ft 409 kts 240°
2026-05-05 15:43 36.78864 135.62477 36177 ft 409 kts 240°
2026-05-05 15:43 36.75961 135.56416 36173 ft 409 kts 240°
2026-05-05 15:44 36.73043 135.50332 36173 ft 408 kts 240°
2026-05-05 15:44 36.70125 135.44259 36174 ft 408 kts 240°
2026-05-05 15:45 36.67205 135.38194 36172 ft 408 kts 240°
2026-05-05 15:45 36.64284 135.32138 36175 ft 408 kts 240°
2026-05-05 15:46 36.61361 135.26087 36171 ft 408 kts 240°
2026-05-05 15:46 36.58428 135.20027 36170 ft 408 kts 240°
2026-05-05 15:47 36.55493 135.13975 36171 ft 408 kts 240°
2026-05-05 15:47 36.52574 135.07966 36148 ft 408 kts 240°
2026-05-05 15:48 36.49634 135.01926 36162 ft 408 kts 240°
2026-05-05 15:48 36.46695 134.95897 36168 ft 408 kts 240°
2026-05-05 15:49 36.43755 134.89877 36180 ft 408 kts 240°
2026-05-05 15:49 36.40810 134.83857 36165 ft 408 kts 240°
2026-05-05 15:50 36.37863 134.77844 36168 ft 408 kts 240°
2026-05-05 15:50 36.34909 134.71827 36174 ft 408 kts 240°
2026-05-05 15:51 36.31970 134.65850 36180 ft 408 kts 240°
2026-05-05 15:51 36.29016 134.59851 36166 ft 408 kts 240°
2026-05-05 15:52 36.26018 134.53863 36169 ft 409 kts 237°
2026-05-05 15:52 36.22425 134.48382 36167 ft 411 kts 230°
2026-05-05 15:53 36.18289 134.43459 36179 ft 413 kts 226°
2026-05-05 15:53 36.14028 134.38692 36179 ft 413 kts 226°
2026-05-05 15:54 36.09774 134.33931 36174 ft 412 kts 226°
2026-05-05 15:54 36.05530 134.29172 36172 ft 412 kts 226°
2026-05-05 15:55 36.01294 134.24421 36157 ft 411 kts 226°
2026-05-05 15:55 35.97061 134.19679 36162 ft 410 kts 226°
2026-05-05 15:56 35.92875 134.14997 36166 ft 408 kts 226°
2026-05-05 15:56 35.88668 134.10298 36167 ft 407 kts 226°
2026-05-05 15:57 35.84466 134.05610 36169 ft 407 kts 226°
2026-05-05 15:57 35.80276 134.00944 36171 ft 406 kts 226°
2026-05-05 15:58 35.76075 133.96273 36169 ft 406 kts 226°
2026-05-05 15:58 35.71884 133.91619 36167 ft 406 kts 226°
2026-05-05 15:59 35.67688 133.86968 36170 ft 406 kts 226°
2026-05-05 15:59 35.63496 133.82326 36193 ft 406 kts 226°
2026-05-05 16:00 35.59317 133.77707 36175 ft 406 kts 226°
2026-05-05 16:00 35.55114 133.73068 36179 ft 406 kts 226°
2026-05-05 16:01 35.50905 133.68428 36179 ft 406 kts 226°
2026-05-05 16:01 35.46701 133.63802 36176 ft 405 kts 226°
2026-05-05 16:02 35.42499 133.59184 36173 ft 406 kts 226°
2026-05-05 16:02 35.38315 133.54591 36137 ft 406 kts 226°
2026-05-05 16:03 35.34112 133.49999 36172 ft 404 kts 226°
2026-05-05 16:03 35.29922 133.45407 36168 ft 404 kts 226°
2026-05-05 16:04 35.26437 133.41603 36175 ft 404 kts 226°
2026-05-05 16:04 35.22249 133.37028 36184 ft 403 kts 226°
2026-05-05 16:05 35.18065 133.32464 36197 ft 403 kts 226°
2026-05-05 16:05 35.13884 133.27909 36195 ft 403 kts 226°
2026-05-05 16:06 35.09696 133.23365 36200 ft 402 kts 226°
2026-05-05 16:06 35.05508 133.18822 36208 ft 403 kts 226°
2026-05-05 16:07 35.01319 133.14283 36194 ft 403 kts 226°
2026-05-05 16:07 34.97133 133.09749 36193 ft 401 kts 226°
2026-05-05 16:08 34.92982 133.05272 36205 ft 400 kts 226°
2026-05-05 16:08 34.88808 133.00770 36213 ft 401 kts 226°
2026-05-05 16:09 34.84634 132.96270 36206 ft 400 kts 226°